Weather in Ishigaki

Japan     24°27′34″N   124°15′00″E
temp.,
°C
wind,
m/s
gust,
m/s
humid.,
%
clouds,
%
prec.,
mm/h
press.,
hPa
HPBL,
m
19 may, wed
wed1900:00+27s678696 0.4 1012562
03:00+27s6785100 0.8 1011643
06:00+27s6785100 0.1 1011583
09:00+27s788661 0.7 1012616
12:00+27s788545 0.1 1011655
15:00+27s788470 0.2 1010690
18:00+27s78848 0.5 1010653
21:00+27sse798699 0.8 1011686
20 may, thu
thu2000:00+27sse89860 0.2 1011642
03:00+27s8108779 0.3 1010741
06:00+27s91189100 0.0 1010756
09:00+27s911885 0.1 1010772
12:00+27s8108992 0.1 1010762
15:00+27s798634 0.8 1009666
18:00+28s7987100 0.3 1009549
21:00+28sse8108875 0.4 1010591
21 may, fri
fri2100:00+28s798798 0.4 1010622
03:00+28s8108878 0.4 1008673
06:00+27s81088100 0.1 1008711
09:00+28ssw798932 0.3 1009730
12:00+28ssw7108899 0.0 1009707
15:00+28ssw5886100 0.0 1008571
18:00+28ssw578738 0.2 1008545
21:00+28ssw4587100 0.9 1009330
22 may, sat
sat2200:00+27ssw5688100 0.6 1010411
03:00+27sw4686100 1.0 1009443
06:00+27ssw3484100 0.3 1009422
09:00+27ssw3483100 0.3 1010476
12:00+28ssw338111 0.6 1010505
15:00+28ssw338035 0.6 1008554
18:00+28s2279100 1.1 1008403
21:00+28sse2282100 1.7 1010228
23 may, sun
sun2300:00+28se4485100 0.5 1010373
03:00+27s4585100 0.6 1009492
06:00+27s5584100 0.0 1009553
09:00+27s5684100 0.0 1010562
12:00+28s568363 0.0 1010615
15:00+28s568222 0.1 1008634
18:00+28s55819 0.0 1008614
21:00+28s558575 0.1 1010496